Theta_e
280 280 280 281 281 283 282 281 281 280 280 280 280 280 280 281 282 281 281 281 282 282 282 282 281 281 282 281 281 281 281 281 281 281 281 281 281 280 281 281 280 281
280 281 284 283 282 282 281 280 280 280 280 280 280 280 281 281 281 281 281 281 281 281 281 281 281 281 281 281 281 280 280 280 280 283 281 280 280 280 280 280 280 280
279 279 279 279 280 280 280 281 280 280 280 280 280 280 281 281 281 281 281 280 280 281 280 281 280 281 281 281 281 280 280 280 280 280 281 280 280 280 280 280 280 280
280 280 280 280 280 280 280 280 280 280 280 280 280 280 281 281 281 280 280 282 280 280 280 280 280 280 280 280 280 280 280 280 280 280 280 280 281 281 280 280 281 280
281 281 280 280 280 281 280 280 280 280 280 280 280 280 280 280 279 279 280 280 280 280 280 280 280 280 281 281 280 280 280 281 281 280 280 280 280 280 281 281 280 280
280 280 280 280 280 280 280 280 280 280 280 280 280 280 280 280 279 279 280 279 280 280 280 280 280 280 280 280 280 280 280 280 280 280 280 279 279 280 281 280 280 279
280 280 280 280 279 279 279 279 280 280 280 280 280 279 280 279 279 279 279 280 280 280 280 280 280 280 281 280 280 280 280 280 280 280 279 279 280 279 280 280 279 279
280 280 280 280 279 279 279 279 279 280 280 280 279 280 279 279 279 280 280 280 279 280 280 280 280 280 280 280 280 280 279 280 280 280 279 279 279 278 279 279 279 278
280 280 280 279 279 279 279 279 280 280 280 279 279 280 280 279 280 280 280 279 279 279 279 280 280 280 280 280 280 279 279 279 280 279 279 279 278 278 278 279 278 278
279 280 279 279 279 279 279 279 280 280 280 280 280 280 279 280 280 279 279 279 279 279 279 279 280 280 280 280 280 279 279 279 279 279 279 279 278 278 278 278 278 277
279 279 279 279 279 279 279 279 279 279 280 280 279 279 279 279 280 280 279 279 279 279 279 280 280 280 280 280 280 280 279 279 279 279 278 278 278 278 280 278 278 277
279 279 279 279 279 279 279 279 279 279 279 279 279 279 279 279 279 279 280 279 279 279 280 280 280 280 280 279 279 279 279 279 279 278 278 278 278 278 278 278 278 277
279 279 279 279 279 279 279 279 279 279 279 279 279 279 279 279 279 279 279 279 279 279 280 280 280 280 279 279 279 279 279 278 278 278 278 278 278 278 278 278 277 277
279 279 279 279 279 279 279 279 279 279 279 279 279 278 278 279 279 279 279 279 279 279 280 280 280 279 279 279 279 279 278 278 278 278 278 278 278 278 278 278 278 278
279 279 279 279 279 279 279 279 279 279 279 279 279 279 279 279 279 279 279 279 279 279 279 280 279 279 279 279 279 279 279 278 278 278 278 278 278 278 278 278 278 278
279 279 279 279 279 279 279 279 279 279 279 278 279 279 279 279 279 279 279 279 279 279 279 280 279 280 281 283 283 281 280 280 280 279 279 278 278 277 277 278 278 278
278 279 279 279 279 279 279 279 279 279 279 279 279 279 279 279 279 279 279 279 279 279 279 279 279 280 282 283 284 284 282 280 279 279 278 278 277 277 276 277 277 277
279 279 278 279 279 279 279 279 279 279 278 278 279 279 279 279 279 279 279 279 279 279 278 278 278 281 283 283 283 283 283 280 279 278 278 277 277 277 277 277 277 277
279 279 279 279 279 279 279 279 278 278 278 278 279 279 279 279 279 279 279 279 278 277 277 277 277 281 282 282 282 282 282 281 279 278 277 277 277 277 276 276 276 276
279 278 278 279 279 279 279 278 278 278 279 279 279 279 279 279 279 278 278 277 277 277 277 277 277 279 281 281 281 282 282 281 278 277 277 277 276 276 276 276 276 275
279 278 278 279 279 279 278 278 279 279 279 279 279 279 278 278 277 277 277 277 276 276 276 275 276 280 280 281 281 281 281 281 277 277 276 276 276 276 276 275 275 275
278 278 278 278 279 279 278 279 279 279 279 279 279 278 278 278 277 277 276 275 276 275 275 274 275 279 280 280 280 281 281 278 276 276 275 275 275 275 275 276 276 276
279 278 278 278 279 278 278 279 279 279 279 279 277 277 276 276 275 275 275 275 274 274 274 273 274 276 279 279 279 280 279 276 275 275 275 275 275 275 276 276 276 276
279 278 278 278 278 278 278 279 279 278 278 278 276 275 275 275 275 274 274 274 274 273 273 273 273 275 278 278 279 279 278 275 275 274 274 274 274 274 275 275 275 276
279 278 278 278 278 278 278 278 278 277 277 276 275 275 274 274 274 273 273 273 273 273 274 273 273 274 277 277 278 278 278 275 274 273 273 273 273 274 275 275 275 276
278 278 278 278 278 278 278 277 277 276 275 274 274 274 273 273 273 273 272 272 273 272 272 272 272 272 273 276 277 278 278 275 274 273 272 273 273 273 273 274 275 275
Wind_Speed
4 3 4 5 5 4 5 6 6 6 7 6 7 8 7 8 7 7 7 7 7 7 7 7 6 7 7 6 6 6 6 7 7 6 7 8 7 8 9 9 8 8
6 5 4 4 5 5 6 5 6 6 8 7 8 7 7 7 8 6 8 8 7 7 7 7 7 7 7 6 6 6 7 6 8 5 7 9 8 8 9 10 9 9
6 6 6 6 7 7 8 7 6 7 7 8 8 8 8 6 8 7 8 8 8 8 7 7 7 7 7 7 7 7 7 8 9 7 7 9 8 8 9 9 8 9
7 7 7 7 6 7 7 7 7 7 7 7 8 8 7 8 7 9 8 8 8 8 7 7 7 7 7 8 7 7 8 8 8 8 9 9 8 8 9 9 9 10
8 8 7 7 7 7 6 7 9 9 9 9 8 8 8 8 8 8 8 8 7 8 8 8 7 7 8 8 8 8 8 9 8 8 9 10 10 9 9 9 10 12
8 8 8 8 8 7 8 8 9 9 10 9 11 8 8 8 8 9 9 10 9 8 9 9 9 9 8 9 9 8 9 9 10 9 10 12 12 10 8 9 11 12
10 9 9 7 7 7 8 9 9 9 10 10 8 9 9 9 9 10 10 10 10 9 9 10 10 10 9 9 9 10 10 10 11 11 11 12 11 12 11 10 11 13
10 8 8 7 7 8 9 10 10 10 10 9 9 11 8 10 10 10 9 10 9 10 10 10 11 11 11 9 10 11 12 9 10 11 12 13 12 13 12 10 10 12
8 8 8 8 8 9 9 11 10 10 9 10 10 10 9 9 10 10 10 10 10 10 10 11 11 11 10 10 11 12 13 12 11 12 13 13 14 14 13 12 12 13
9 9 8 9 9 10 11 11 11 10 9 9 10 9 10 10 9 10 10 10 10 11 11 11 12 12 12 11 12 12 13 14 13 12 12 13 14 15 14 12 13 14
10 9 9 10 11 10 11 12 11 10 9 9 10 10 10 10 10 8 9 10 11 11 12 12 12 12 13 13 12 12 12 13 13 12 13 13 13 13 14 15 14 15
10 9 10 10 11 10 12 12 10 9 10 9 9 11 10 9 10 10 9 11 12 12 12 13 13 13 13 13 13 12 12 12 13 12 13 13 13 12 13 12 15 15
10 11 10 9 9 10 10 9 10 10 9 10 9 9 10 10 10 11 10 11 12 12 13 13 14 13 12 12 12 12 13 14 13 14 13 13 13 14 13 15 14 15
10 9 8 9 9 9 9 10 10 10 10 9 8 9 10 10 11 11 11 10 12 12 13 13 12 12 12 12 12 13 13 12 14 15 14 13 14 15 15 15 16 15
8 7 7 9 10 9 10 10 10 10 9 9 8 9 9 10 11 11 12 13 13 13 13 12 12 12 10 11 13 14 13 14 14 15 15 16 16 15 15 16 14 15
8 8 9 9 9 10 10 10 10 9 9 9 10 10 10 10 11 11 11 13 13 14 13 11 11 10 11 18 20 16 16 13 13 13 13 13 15 14 15 15 15 14
8 9 8 9 10 9 9 10 10 9 9 10 10 10 11 11 11 12 12 12 13 13 13 12 11 11 17 23 25 30 22 16 15 14 13 15 14 15 14 15 15 14
9 9 9 10 9 10 10 9 9 9 9 10 10 11 11 10 11 12 12 12 11 12 13 13 13 14 23 25 28 30 28 21 15 13 14 12 14 15 14 14 14 15
8 8 9 9 9 9 9 8 9 9 10 10 12 11 10 11 12 12 12 11 11 13 14 14 14 17 24 28 29 31 32 27 16 14 15 12 13 13 16 14 13 14
8 8 9 10 9 9 8 8 8 10 10 9 10 10 10 11 11 12 12 11 11 12 14 15 16 17 26 29 30 32 32 28 17 16 14 16 14 14 14 18 16 16
8 8 9 9 9 8 8 8 9 10 10 10 9 10 10 11 11 12 11 12 13 12 13 13 13 22 27 30 31 32 33 29 17 14 13 13 14 15 17 17 18 15
8 8 8 8 8 8 8 10 10 10 11 10 9 10 9 10 11 11 12 12 13 13 13 13 14 24 29 30 32 32 35 21 14 13 13 15 14 17 17 15 16 17
7 7 8 9 8 9 10 10 10 11 10 8 10 10 11 12 11 11 10 12 13 13 15 14 15 22 29 32 32 34 29 16 14 13 12 15 17 15 14 15 14 16
7 7 8 9 9 10 11 10 9 8 9 8 10 12 12 12 11 12 11 11 12 14 14 14 15 21 31 32 33 33 29 19 15 17 19 21 21 19 19 17 20 32
7 7 8 9 10 10 9 10 9 10 10 9 10 10 11 11 10 11 11 11 11 13 17 18 16 19 28 31 33 32 26 18 18 17 18 18 17 19 16 17 19 20
6 7 8 8 9 10 9 9 9 10 10 10 10 10 11 10 10 10 13 12 12 12 14 15 16 16 21 33 32 33 32 22 17 18 18 19 17 16 16 17 15 16
Wind_Direction
273 267 263 271 273 269 273 282 280 277 276 277 273 277 275 279 282 281 275 276 271 270 272 272 274 273 272 271 269 268 262 262 265 266 265 266 265 268 273 273 270 267
273 265 265 268 277 277 269 253 268 271 278 278 277 279 280 281 280 275 277 275 274 270 269 270 269 270 274 276 277 277 276 269 273 269 272 270 269 269 269 268 269 269
263 267 261 264 267 273 275 275 272 272 271 274 280 277 276 273 278 277 274 275 277 276 275 272 273 273 273 276 277 277 279 280 278 277 273 274 274 271 269 271 271 269
269 258 260 264 260 261 267 273 275 273 272 276 271 274 271 275 273 273 274 273 275 277 275 274 273 278 278 278 279 277 275 274 273 275 276 276 271 270 274 274 271 273
266 271 264 257 257 257 263 265 269 271 272 270 278 274 275 274 275 275 275 276 273 278 280 278 278 276 277 279 277 282 281 281 278 275 274 278 275 272 273 275 274 274
263 256 260 260 259 261 263 262 263 266 270 275 268 275 270 271 272 274 276 279 280 279 283 283 282 281 278 279 281 276 280 281 281 278 277 277 280 273 271 270 273 272
264 267 264 258 260 258 260 262 266 266 265 262 277 271 271 275 272 274 277 277 280 281 281 283 283 282 280 280 280 280 278 276 279 279 276 276 278 279 274 269 269 271
263 268 267 268 266 266 264 263 263 264 264 273 266 270 269 271 273 274 276 277 279 280 280 279 278 277 278 277 277 279 279 276 277 278 278 277 278 280 278 272 268 271
268 269 270 271 268 267 264 264 265 265 266 267 268 271 272 268 273 275 275 278 278 278 278 277 276 277 277 275 274 275 278 279 277 277 277 280 280 279 279 278 275 274
267 267 270 268 267 263 265 265 266 266 268 269 269 272 274 273 270 274 278 276 276 277 275 274 276 276 276 273 273 275 277 278 279 277 276 276 277 279 280 278 275 276
266 267 267 266 263 264 263 265 265 267 268 267 272 273 269 276 279 272 274 276 276 274 276 276 276 277 279 279 277 275 275 277 277 277 276 274 273 273 275 278 276 273
265 267 262 261 264 265 263 263 266 267 268 269 266 271 276 273 274 278 274 275 273 273 274 277 278 277 277 279 280 279 277 276 276 274 274 274 273 270 270 269 273 274
264 261 261 265 265 265 267 268 266 266 267 268 268 269 273 276 274 274 272 269 272 273 274 275 279 280 279 279 279 278 278 278 277 275 273 274 271 270 269 270 268 271
260 263 268 268 268 269 268 267 268 268 267 268 271 272 271 271 274 275 275 272 272 273 275 279 280 281 281 279 279 279 278 274 275 278 275 271 272 272 272 271 271 271
271 271 269 269 271 271 270 269 269 270 271 272 271 271 271 270 273 274 277 278 276 275 278 279 281 281 283 282 283 281 275 276 275 276 275 276 277 275 272 272 270 271
272 272 271 273 274 272 271 274 274 275 277 277 275 273 274 276 276 276 275 276 281 282 284 284 283 283 275 275 278 282 283 281 278 276 275 275 276 276 275 272 271 270
272 270 272 273 272 276 276 277 278 278 279 279 279 277 276 278 279 280 279 279 282 285 288 287 286 285 281 284 286 289 290 288 285 282 277 280 278 278 278 278 276 272
269 273 276 276 278 278 278 279 280 281 281 280 280 280 279 280 282 280 283 285 286 288 288 289 289 285 288 290 292 293 293 292 288 284 282 279 281 281 281 281 279 277
276 280 280 282 281 281 282 283 283 283 281 280 280 281 288 287 287 289 287 289 290 291 291 290 291 290 292 295 295 295 295 294 290 287 286 283 283 283 283 280 278 276
284 284 283 282 283 284 285 284 283 280 278 279 284 289 290 291 292 292 293 291 289 289 291 293 293 294 295 297 298 297 297 296 292 291 287 286 284 282 279 279 275 277
286 283 283 285 288 288 288 284 283 285 287 290 292 295 298 297 299 299 295 294 294 292 291 293 293 295 299 299 299 298 297 297 294 290 287 284 281 278 277 276 277 276
284 286 288 291 293 293 291 290 290 290 295 299 300 300 297 296 294 292 293 293 294 295 295 293 296 299 300 299 298 298 298 298 293 289 288 285 280 278 277 275 273 270
287 292 295 296 295 294 294 294 297 301 303 307 304 301 301 298 293 293 294 296 297 296 297 296 296 298 298 298 299 299 301 299 297 293 287 285 284 281 278 278 277 275
297 296 295 294 295 294 294 297 300 301 302 307 302 302 300 298 299 298 296 296 298 297 296 296 295 295 296 298 299 300 304 305 302 300 296 293 292 290 290 283 282 282
294 292 288 289 292 294 299 305 308 306 303 301 298 298 295 298 297 297 296 296 294 295 295 294 292 293 297 299 302 305 308 304 301 297 294 292 291 289 283 281 280 277
286 286 287 289 294 301 307 307 304 302 302 304 302 300 299 298 297 296 297 296 296 296 297 293 292 294 297 302 306 307 306 304 300 298 295 294 292 289 285 280 276 278